TimeCST,TemperatureF,Dew PointF,Humidity,Sea Level PressureIn,VisibilityMPH,Wind Direction,Wind SpeedMPH,Gust SpeedMPH,PrecipitationIn,Events,Conditions,WindDirDegrees,DateUTC
12:53 AM,19.9,6.1,55,30.30,10.0,ESE,10.4,-,N/A,,Overcast,110,2013-12-08 06:53:00
1:53 AM,19.9,6.1,55,30.25,10.0,ESE,11.5,-,N/A,,Overcast,110,2013-12-08 07:53:00
2:53 AM,19.9,6.1,55,30.22,10.0,ESE,13.8,-,N/A,,Overcast,110,2013-12-08 08:53:00
3:53 AM,19.9,8.1,60,30.18,10.0,ESE,13.8,-,N/A,,Overcast,110,2013-12-08 09:53:00
4:53 AM,19.0,9.0,65,30.14,10.0,SE,17.3,-,N/A,,Overcast,130,2013-12-08 10:53:00
5:53 AM,19.0,12.0,74,30.13,10.0,SE,8.1,-,N/A,,Overcast,130,2013-12-08 11:53:00
6:44 AM,19.4,14.0,80,30.06,6.0,SE,11.5,-,0.00,,Haze,130,2013-12-08 12:44:00
6:53 AM,19.0,14.0,81,30.11,6.0,SE,10.4,-,0.00,,Haze,140,2013-12-08 12:53:00
7:53 AM,19.0,16.0,88,30.12,4.0,SE,6.9,-,0.00,,Overcast,140,2013-12-08 13:53:00
8:53 AM,19.9,17.1,89,30.10,2.0,SE,9.2,-,N/A,,Overcast,140,2013-12-08 14:53:00
9:53 AM,21.0,17.1,85,30.09,2.0,SSE,8.1,-,0.00,Snow,Light Snow,160,2013-12-08 15:53:00
10:00 AM,21.2,17.6,86,30.04,1.5,SSE,9.2,-,0.00,Snow,Light Snow,160,2013-12-08 16:00:00
10:42 AM,21.2,17.6,86,30.03,2.0,South,6.9,-,0.00,Snow,Light Snow,170,2013-12-08 16:42:00
10:53 AM,21.0,18.0,88,30.08,2.0,SSE,6.9,-,0.00,Snow,Light Snow,160,2013-12-08 16:53:00
11:30 AM,21.2,17.6,86,30.01,4.0,SSE,8.1,-,0.00,Snow,Light Snow,160,2013-12-08 17:30:00
11:53 AM,21.0,17.1,85,30.06,4.0,South,5.8,-,0.00,Snow,Light Snow,180,2013-12-08 17:53:00
12:53 PM,21.9,17.1,82,30.02,4.0,South,5.8,-,0.00,,Haze,190,2013-12-08 18:53:00
1:53 PM,21.9,17.1,82,30.01,7.0,SW,3.5,-,N/A,,Overcast,230,2013-12-08 19:53:00
2:53 PM,21.9,18.0,85,30.02,3.0,West,4.6,-,0.00,Snow,Light Snow,270,2013-12-08 20:53:00
3:33 PM,21.2,17.6,86,30.00,2.5,West,9.2,-,0.00,Snow,Light Snow,270,2013-12-08 21:33:00
3:43 PM,21.2,17.6,86,30.00,1.8,West,8.1,-,0.00,Snow,Light Snow,270,2013-12-08 21:43:00
3:49 PM,21.2,17.6,86,30.00,2.5,West,8.1,-,0.00,Snow,Light Snow,280,2013-12-08 21:49:00
3:53 PM,21.9,18.0,85,30.06,2.5,WNW,9.2,-,0.00,Snow,Light Snow,290,2013-12-08 21:53:00
4:04 PM,23.0,17.6,80,30.01,1.8,WNW,9.2,-,0.00,Snow,Light Snow,290,2013-12-08 22:04:00
4:42 PM,21.2,17.6,86,30.03,2.0,WNW,6.9,-,0.00,Snow,Light Snow,290,2013-12-08 22:42:00
4:53 PM,21.9,18.0,85,30.09,2.0,WNW,8.1,-,0.00,Snow,Light Snow,300,2013-12-08 22:53:00
5:53 PM,21.9,18.0,85,30.12,2.0,WNW,9.2,-,0.00,Snow,Light Snow,300,2013-12-08 23:53:00
5:58 PM,21.2,17.6,86,30.07,5.0,WNW,9.2,-,0.00,Snow,Light Snow,300,2013-12-08 23:58:00
6:53 PM,19.0,15.1,85,30.15,10.0,NNW,9.2,-,0.00,,Mostly Cloudy,330,2013-12-09 00:53:00
7:20 PM,15.8,12.2,86,30.11,10.0,NW,9.2,-,N/A,,Clear,320,2013-12-09 01:20:00
7:53 PM,10.9,7.0,84,30.19,9.0,WNW,9.2,-,N/A,,Clear,300,2013-12-09 01:53:00
8:53 PM,10.9,7.0,84,30.22,10.0,NW,10.4,-,N/A,,Clear,310,2013-12-09 02:53:00
9:53 PM,10.0,6.1,84,30.25,10.0,WNW,8.1,-,N/A,,Clear,300,2013-12-09 03:53:00
10:53 PM,8.1,5.0,87,30.29,10.0,WNW,5.8,-,N/A,,Clear,290,2013-12-09 04:53:00
11:53 PM,8.1,3.9,83,30.28,10.0,NNW,4.6,-,N/A,,Clear,340,2013-12-09 05:53:00